Location: Te Maire Creek
(41.1333°S, 175.9167°E)
Time: 16:33:47
(UTC+00:00)

Cosmos 1606 - Pass Details

Date: 19 May 2024
Orbit: 458 x 474 km, 82.5° (Epoch: 12 June)

Event Time Altitude Azimuth Distance (km) Brightness Sun altitude
Rises 17:59:09 0° 5° (N) 2,508 6.4 -15.5°
Reaches altitude 10° 18:01:15 10° 11° (N) 1,644 5.6 -15.1°
Maximum altitude 18:04:44 49° 86° (E) 629 3.6 -14.5°
Drops below altitude 10° 18:08:18 10° 161° (SSE) 1,682 5.3 -13.8°
Sets 18:10:27 0° 166° (SSE) 2,574 6.2 -13.4°
